TimeMDT,TemperatureF,Dew PointF,Humidity,Sea Level PressureIn,VisibilityMPH,Wind Direction,Wind SpeedMPH,Gust SpeedMPH,PrecipitationIn,Events,Conditions,WindDirDegrees,DateUTC
12:53 AM,41.0,37.0,86,30.16,10.0,Calm,Calm,-,N/A,,Clear,0,2013-09-20 06:53:00
1:53 AM,39.9,36.0,86,30.15,10.0,SSW,4.6,-,N/A,,Clear,210,2013-09-20 07:53:00
2:53 AM,39.0,36.0,89,30.15,10.0,Calm,Calm,-,N/A,,Clear,0,2013-09-20 08:53:00
3:53 AM,37.9,35.1,89,30.13,10.0,Calm,Calm,-,N/A,,Clear,0,2013-09-20 09:53:00
4:53 AM,37.0,34.0,89,30.12,10.0,Calm,Calm,-,N/A,,Clear,0,2013-09-20 10:53:00
5:53 AM,36.0,32.0,86,30.12,10.0,Calm,Calm,-,N/A,,Clear,0,2013-09-20 11:53:00
6:53 AM,36.0,33.1,89,30.12,10.0,Calm,Calm,-,N/A,,Clear,0,2013-09-20 12:53:00
7:53 AM,43.0,39.0,86,30.13,10.0,Calm,Calm,-,N/A,,Clear,0,2013-09-20 13:53:00
8:53 AM,48.0,41.0,77,30.11,10.0,Calm,Calm,-,N/A,,Clear,0,2013-09-20 14:53:00
9:53 AM,54.0,41.0,62,30.09,10.0,North,4.6,-,N/A,,Clear,360,2013-09-20 15:53:00
10:53 AM,63.0,43.0,48,30.05,10.0,NNE,3.5,-,N/A,,Clear,30,2013-09-20 16:53:00
11:53 AM,66.9,34.0,30,30.02,10.0,ESE,10.4,-,N/A,,Clear,120,2013-09-20 17:53:00
12:53 PM,68.0,37.0,32,29.99,10.0,East,8.1,-,N/A,,Clear,100,2013-09-20 18:53:00
1:53 PM,70.0,36.0,29,29.97,10.0,East,9.2,-,N/A,,Clear,100,2013-09-20 19:53:00
2:53 PM,72.0,30.0,21,29.93,10.0,East,9.2,-,N/A,,Clear,100,2013-09-20 20:53:00
3:53 PM,73.9,30.0,20,29.91,10.0,ESE,5.8,-,N/A,,Clear,110,2013-09-20 21:53:00
4:53 PM,73.9,34.0,23,29.88,10.0,East,6.9,-,N/A,,Clear,100,2013-09-20 22:53:00
5:53 PM,73.0,35.1,25,29.86,10.0,East,4.6,-,N/A,,Clear,90,2013-09-20 23:53:00
6:53 PM,68.0,37.9,33,29.87,10.0,Calm,Calm,-,N/A,,Clear,0,2013-09-21 00:53:00
7:35 PM,53.6,42.8,67,29.89,2.5,Calm,Calm,-,N/A,,Haze,0,2013-09-21 01:35:00
7:53 PM,51.1,43.0,74,29.90,4.0,South,3.5,-,N/A,,Haze,170,2013-09-21 01:53:00
8:53 PM,51.1,42.1,71,29.88,10.0,South,3.5,-,N/A,,Clear,180,2013-09-21 02:53:00
9:53 PM,48.0,39.9,74,29.86,10.0,Calm,Calm,-,N/A,,Clear,0,2013-09-21 03:53:00
10:53 PM,46.9,39.9,77,29.83,10.0,South,4.6,-,N/A,,Clear,180,2013-09-21 04:53:00
11:53 PM,44.1,39.0,82,29.81,10.0,Calm,Calm,-,N/A,,Clear,0,2013-09-21 05:53:00